sat.trackr.live / text

‹ back to catalog

STARLINK-35006

NORAD 65284 · 2025-184M

PAYLOAD ACTIVE UNKNOWN

§ Identity

Operator
Country
US
Launch date
2025-08-22
Launch site
AFWTR
Launch vehicle
Mass (kg)
RCS (m²)

Purposes: comms

External: N2YO · Heavens-Above · Gunter

§ Orbital elements

Epoch: 2026-09-20T13:55:43.528224Z

Period
93.90 min
Inclination
97.2843°
Eccentricity
0.0000295
Mean motion
15.33473307 rev/d
Perigee alt
465.3 km
Apogee alt
465.7 km
Semi-major
6,843.6 km
B*
5.9939e-4
RAAN
311.5034°
Arg perigee
188.7406°
Mean anomaly
171.3831°
Rev number
6,073

§ Raw data

STARLINK-350061 65284U 25184M   26263.58036491  .00019342  00000+0  59939-3 0  99962 65284  97.2843 311.5034 0000295 188.7406 171.3831 15.33473307 60733

JSON: /api/v1/satellites/65284 · /tle

For live sub-satellite position, see the globe view (requires WebGL).

§ Visibility from observer

Set your observer location to see the next 7 days of passes ≥ 10°. The values pass through the URL so the page stays shareable.

No JS? Fill the form by hand. The geolocation button needs JavaScript.